{"data":{"norad_id":40544,"epoch":"2026-09-17T21:25:43.692384Z","epoch_age_seconds":243372,"freshness":"STALE","line1":"1 40544U 15017A   26260.89286681 -.00000097  00000+0  00000+0 0  9990","line2":"2 40544  56.7489 339.0688 0004460 252.0601 107.9439  1.70476597 70786","mean_motion":1.70476597,"eccentricity":0.000446,"inclination_deg":56.7489,"raan_deg":339.0688,"arg_perigee_deg":252.0601,"mean_anomaly_deg":107.9439,"bstar":0,"rev_number":7078,"period_min":844.69072314952,"perigee_km":23208.680831966,"apogee_km":23235.084049307,"semimajor_km":29600.019440637,"source":"CELESTRAK","updated_at":"2026-09-20T09:00:46.492699Z"}}